This is the latest recevied weather packets stored in our database for station/object HB9HUT-13. If no packets are shown the sender has not sent any weather packets the latest 1 day(s).
| Time | Temp. | Humidity | Pressure | Rain* | Wind** | Luminosity | Snow |
|---|---|---|---|---|---|---|---|
| 1778064891 | 16.67° C | 45% | 836.8 hPa | - | - | - | - |
| 1778063988 | 16.67° C | 44% | 836.7 hPa | - | - | - | - |
| 1778063988 | 16.67° C | 44% | 836.7 hPa | - | - | - | - |
| 1778063085 | 16.67° C | 45% | 836.6 hPa | - | - | - | - |
| 1778062182 | 16.67° C | 45% | 836.7 hPa | - | - | - | - |
| 1778062182 | 16.67° C | 45% | 836.7 hPa | - | - | - | - |
| 1778061279 | 16.11° C | 44% | 836.7 hPa | - | - | - | - |
| 1778060376 | 15.56° C | 45% | 836.6 hPa | - | - | - | - |
| 1778059473 | 15° C | 45% | 836.6 hPa | - | - | - | - |
| 1778058570 | 13.33° C | 46% | 836.5 hPa | - | - | - | - |
| 1778058570 | 13.33° C | 46% | 836.5 hPa | - | - | - | - |
| 1778057667 | 12.22° C | 45% | 836.4 hPa | - | - | - | - |
| 1778056764 | 11.67° C | 45% | 836.6 hPa | - | - | - | - |
| 1778056764 | 11.67° C | 45% | 836.6 hPa | - | - | - | - |
| 1778055861 | 10.56° C | 45% | 836.6 hPa | - | - | - | - |
| 1778055861 | 10.56° C | 45% | 836.6 hPa | - | - | - | - |
| 1778054958 | 10.56° C | 45% | 836.7 hPa | - | - | - | - |
| 1778054958 | 10.56° C | 45% | 836.7 hPa | - | - | - | - |
| 1778054055 | 10° C | 44% | 836.8 hPa | - | - | - | - |
| 1778054055 | 10° C | 44% | 836.8 hPa | - | - | - | - |
| 1778053152 | 9.44° C | 45% | 836.9 hPa | - | - | - | - |
| 1778053152 | 9.44° C | 45% | 836.9 hPa | - | - | - | - |
| 1778052249 | 9.44° C | 45% | 837 hPa | - | - | - | - |
| 1778052249 | 9.44° C | 45% | 837 hPa | - | - | - | - |
| 1778051346 | 8.89° C | 44% | 837 hPa | - | - | - | - |
* Rain since midnight (hover to see other rain measurements)
** Current wind speed in m/s (hover to see current wind gust speed)